User: anonymous   Login
Location: Unspecified
(0.0000°N, 0.0000°E)
Time: 14:48:21
(UTC+00:00)
Language:

COSMOS 2467 - Orbit

View from above orbital plane
View from above orbital plane
View from above satellite
View from above satellite

Ground track
Ground track

The orbit data is extracted from the following two-line orbital elements,

1 37152U 10043A   18267.79703679 +.00000040 +00000-0 +21607-3 0  9991
2 37152 082.4594 030.3638 0001648 167.0009 346.2618 12.42882426364920
Epoch (UTC): 24 September 2018 19:07:43
Eccentricity: 0.0001648
inclination: 82.4594°
perigee height: 1493 km
apogee height: 1496 km
right ascension of ascending node: 30.3638°
argument of perigee: 167.0009°
revolutions per day: 12.42882426
mean anomaly at epoch: 346.2618°
orbit number at epoch: 36492

The dashed part of the orbit path shows where the satellite is in the earth's shadow,  

DLR